EHI
0 0 0 0 0 0 0 0 0 0 0 0 0 0 0 0 0 0 0 0 0 0 0 0 0 0 0 0 0 0 0 0 0 0 0 0 0 0 0 0 0 0 0
0 0 0 0 0 0 0 0 0 0 0 0 0 0 0 0 0 0 0 0 0 0 0 0 0 0 0 0 0 0 0 0 0 0 0 0 0 0 0 0 0 0 0
0 0 0 0 0 0 0 0 0 0 0 0 0 0 0 0 0 0 0 0 0 0 0 0 0 0 0 0 0 0 0 0 0 0 0 0 0 0 0 0 0 0 0
0 0 0 0 0 0 0 0 0 0 0 0 0 0 0 0 0 0 0 0 0 0 0 0 0 0 0 0 0 0 0 0 0 0 0 0 0 0 0 0 0 0 0
0 0 0 0 0 0 0 0 0 0 0 0 0 0 0 0 0 0 0 0 0 0 0 0 0 0 0 0 0 0 0 0 0 0 0 0 0 0 0 0 0 0 0
0 0 0 0 0 0 0 0 0 0 0 0 0 0 0 0 0 0 0 0 0 0 0 0 0 0 0 0 0 0 0 0 0 0 0 0 0 0 0 0 0 0 0
0 0 0 0 0 0 0 0 0 0 0 0 0 0 0 0 0 0 0 0 0 0 0 0 0 0 0 0 0 0 0 0 0 0 0 0 0 0 0 0 0 0 0
0 0 0 0 0 0 0 0 0 0 0 0 0 0 0 0 0 0 0 0 0 0 0 0 0 0 0 0 0 0 0 0 0 0 0 0 0 0 0 0 0 0 0
0 0 0 0 0 0 0 0 0 0 0 0 0 0 0 0 0 0 0 0 0 0 0 0 0 0 0 0 0 0 0 0 0 0 0 0 0 0 0 0 0 0 0
0 0 0 0 0 0 0 0 0 0 0 0 0 0 0 0 0 0 0 0 0 0 0 0 0 0 0 0 0 0 0 0 0 0 0 0 0 0 0 0 0 0 0
0 0 0 0 0 0 0 0 0 0 0 0 0 0 0 0 0 0 0 0 0 0 0 0 0 0 0 0 0 0 0 0 0 0 0 0 0 0 0 0 0 0 0
0 0 0 0 0 0 0 0 0 0 0 0 0 0 0 0 0 0 0 0 0 0 0 0 0 0 0 0 0 0 0 0 0 0 0 0 0 0 0 0 0 0 0
0 0 0 0 0 0 0 0 0 0 0 0 0 0 0 0 0 0 0 0 0 0 0 0 0 0 0 0 0 0 0 0 0 0 0 0 0 0 0 0 0 0 0
0 0 0 0 0 0 0 0 0 0 0 0 0 0 0 0 0 0 0 0 0 0 0 0 0 0 0 0 0 0 0 0 0 0 0 0 0 0 0 0 0 0 0
0 0 0 0 0 0 0 0 0 0 0 0 0 0 0 0 0 0 0 0 0 0 0 0 0 0 0 0 0 0 0 0 0 0 0 0 0 0 0 0 0 0 0
0 0 0 0 0 0 0 0 0 0 0 0 0 0 0 0 0 0 0 0 0 0 0 0 0 0 0 0 0 0 0 0 0 0 0 0 0 0 0 0 0 0 0
0 0 0 0 0 0 0 0 0 0 0 0 0 0 0 0 0 0 0 0 0 0 0 0 0 0 0 0 0 0 0 0 0 0 0 0 0 0 0 0 0 0 0
0 0 0 0 0 0 0 0 0 0 0 0 0 0 0 0 0 0 0 0 0 0 0 0 0 0 0 0 0 0 0 0 0 0 0 0 0 0 0 0 0 0 0
0 0 0 0 0 0 0 0 0 0 0 0 0 0 0 0 0 0 0 0 0 0 0 0 0 0 0 0 0 0 0 0 0 0 0 0 0 0 0 0 0 0 0
0 0 0 0 0 0 0 0 0 0 0 0 0 0 0 0 0 0 0 0 0 0 0 0 0 0 0 0 0 0 0 0 0 0 0 0 0 0 0 0 0 0 0
0 0 0 0 0 0 0 0 0 0 0 0 0 0 0 0 0 0 0 0 0 0 0 0 0 0 0 0 0 0 0 0 0 0 0 0 0 0 0 0 0 0 0
0 0 0 0 0 0 0 0 0 0 0 0 0 0 0 0 0 0 0 0 0 0 0 0 0 0 0 0 0 0 0 0 0 0 0 0 0 0 0 0 0 0 0
0 0 0 0 0 0 0 0 0 0 0 0 0 0 0 0 0 0 0 0 0 0 0 0 0 0 0 0 0 0 0 0 0 0 0 0 0 0 0 0 0 0 0
0 0 0 0 0 0 0 0 0 0 0 0 0 0 0 0 0 0 0 0 0 0 0 0 0 0 0 0 0 0 0 0 0 0 0 0 0 0 0 0 0 0 0
0 0 0 0 0 0 0 0 0 0 0 0 0 0 0 0 0 0 0 0 0 0 0 0 0 0 0 0 0 0 0 0 0 0 0 0 0 0 0 0 0 0 0
0 0 0 0 0 0 0 0 0 0 0 0 0 0 0 0 0 0 0 0 0 0 0 0 0 0 0 0 0 0 0 0 0 0 0 0 0 0 0 0 0 0 0
Wind_Speed
6 7 8 8 8 9 9 10 10 9 9 9 9 9 8 7 7 7 7 6 7 5 5 5 5 3 3 2 2 2 1 1 4 4 2 5 5 7 8 6 7 6 8
5 6 7 8 9 10 10 10 10 11 9 9 9 9 8 7 7 7 8 6 6 6 5 5 4 3 3 2 2 2 1 1 3 7 5 5 6 8 8 8 7 7 6
6 7 8 9 10 10 10 10 10 11 10 9 9 9 8 8 7 7 7 7 6 5 5 4 4 3 3 2 1 1 1 2 2 5 7 5 5 6 8 7 7 6 6
7 8 8 9 9 10 10 10 10 10 11 10 8 8 8 7 7 7 7 7 6 5 4 4 3 3 2 1 1 1 1 2 3 4 6 6 5 6 6 8 9 7 8
8 8 8 8 9 10 10 10 9 9 10 10 10 9 7 6 6 7 7 6 6 5 4 3 2 2 2 1 1 1 2 2 3 4 6 7 7 8 8 7 10 10 8
8 8 8 9 9 10 10 10 10 10 9 9 9 9 7 5 10 11 8 6 5 5 4 3 2 2 2 3 4 4 4 4 5 4 6 8 9 9 8 8 9 10 9
8 9 9 10 10 10 10 10 10 10 9 9 8 7 7 8 12 11 10 6 5 4 3 2 1 1 1 1 3 5 5 7 8 6 6 7 9 8 9 9 8 9 9
9 9 9 10 10 10 10 10 9 8 8 8 8 7 7 7 11 10 10 6 5 4 3 2 1 0 1 2 2 3 3 4 6 4 5 6 6 6 6 7 8 8 8
11 10 10 11 11 11 10 10 8 8 7 6 7 7 7 7 9 10 9 4 4 3 2 1 1 1 4 5 3 3 4 4 6 9 10 10 11 11 9 5 5 6 7
12 10 10 10 11 11 10 9 6 7 8 7 7 5 6 5 8 9 8 4 3 2 1 1 1 2 4 5 2 3 5 5 4 5 6 7 6 7 9 4 4 5 5
9 10 9 8 9 9 9 7 8 8 8 7 7 5 4 4 6 8 7 3 3 2 2 1 2 4 5 6 4 2 5 5 3 3 4 4 4 3 3 4 3 4 5
11 10 10 9 8 8 9 8 8 9 9 7 6 5 2 2 3 5 5 4 4 3 2 2 2 5 5 5 4 4 7 5 2 2 3 3 4 4 4 5 5 5 5
11 11 10 9 7 8 9 10 8 7 7 6 6 5 4 2 3 5 5 5 4 2 2 3 4 4 3 3 4 5 3 2 2 2 3 3 3 4 4 4 4 4 5
12 10 10 10 8 7 6 7 8 8 7 7 6 6 4 3 3 3 3 3 3 2 1 1 2 2 1 1 2 2 2 1 1 2 3 3 3 3 3 3 3 4 4
10 9 9 8 9 8 6 5 6 4 6 8 7 7 7 6 7 9 6 4 3 3 2 1 0 0 0 0 1 1 1 1 1 2 2 3 3 3 3 3 3 3 2
10 9 8 7 7 7 7 4 5 5 6 7 7 7 4 6 9 10 9 7 7 6 3 2 2 2 2 2 1 2 1 2 2 2 2 2 3 3 4 3 2 2 3
9 9 8 8 8 8 7 8 6 4 5 6 8 10 9 9 10 10 9 7 6 6 3 2 3 3 3 2 2 2 2 2 2 2 2 2 3 3 3 3 3 3 3
7 8 8 8 8 8 7 7 6 7 6 4 5 9 10 10 10 10 9 6 3 3 3 3 4 3 3 3 3 3 3 2 2 2 2 2 2 2 2 3 3 3 3
6 5 5 5 6 6 6 6 5 6 5 4 3 4 7 9 9 10 8 5 4 4 4 4 4 3 3 3 3 3 3 3 3 2 3 3 2 2 3 3 3 3 3
4 6 6 5 5 5 6 6 6 6 6 6 6 6 4 4 4 5 5 4 4 5 4 5 4 4 4 4 3 3 3 3 3 3 3 3 3 3 3 4 3 3 3
4 5 6 5 5 6 6 6 6 6 7 7 6 7 11 7 7 7 6 6 6 6 5 5 4 4 4 4 4 4 5 4 4 4 3 3 3 3 3 3 3 3 3
4 4 5 5 5 5 6 6 6 6 7 7 5 6 12 7 6 6 6 6 6 5 5 5 4 5 5 5 5 5 5 5 4 4 4 4 3 3 3 3 3 3 3
4 4 4 4 4 5 5 5 6 6 7 6 6 6 6 6 6 6 6 6 5 5 5 5 5 5 5 5 5 5 6 6 5 5 4 4 4 4 3 4 4 4 4
4 5 5 5 5 5 6 6 6 6 6 6 6 7 7 7 6 7 6 5 5 5 5 5 6 7 8 6 5 5 5 5 5 5 6 5 5 4 4 4 5 5 5
4 5 5 5 6 6 6 6 6 6 6 6 6 6 6 6 6 6 5 5 6 6 7 6 5 7 9 10 8 6 8 10 8 5 5 5 6 6 5 5 5 5 5
4 5 5 5 5 6 6 6 6 6 7 6 6 6 6 6 6 6 5 5 6 6 6 6 8 9 9 8 9 10 10 11 11 10 7 6 7 6 6 5 6 6 5
Wind_Direction
179 173 164 159 154 150 148 147 144 138 137 135 133 128 124 118 116 114 111 111 108 101 94 95 88 84 80 66 59 56 45 325 280 293 303 325 321 324 324 319 315 316 321
159 153 149 145 143 141 142 142 139 135 133 132 131 126 122 119 118 119 117 114 114 111 105 100 94 90 82 66 55 43 17 338 301 303 309 322 319 318 317 318 323 324 315
142 141 140 142 142 141 140 138 135 132 129 126 128 126 124 121 117 114 116 113 110 110 110 107 103 95 82 61 45 22 345 330 307 303 308 310 309 316 322 318 315 312 315
141 141 142 143 142 139 136 134 132 132 130 128 124 122 121 120 119 118 116 114 111 106 103 102 100 96 91 62 33 352 329 321 310 305 307 313 314 318 324 330 329 329 322
143 141 138 133 130 129 128 127 124 122 123 126 124 119 118 120 125 127 123 123 120 113 102 95 92 84 58 39 1 329 326 315 312 312 315 318 323 333 334 329 323 322 316
145 141 135 133 130 130 129 127 124 121 122 124 125 127 125 126 135 134 131 126 123 120 115 103 95 85 29 4 344 334 328 317 313 310 313 316 319 321 321 320 320 324 322
144 143 144 142 139 137 134 131 131 131 129 126 126 127 126 134 137 134 132 127 124 122 122 121 112 72 322 296 316 326 321 313 312 305 300 304 308 313 315 314 316 314 305
153 154 152 148 142 139 137 135 133 132 134 131 132 131 127 135 138 136 133 123 123 124 128 137 145 284 300 310 298 302 295 298 306 302 279 287 295 303 305 308 309 304 290
165 165 161 155 149 146 145 141 137 134 131 129 133 134 133 138 143 141 134 129 129 135 145 159 194 258 307 327 325 307 304 298 314 315 311 312 317 324 329 324 320 319 311
173 165 158 156 154 152 148 141 133 134 132 130 129 131 136 140 148 146 141 136 141 149 161 177 243 290 307 317 306 295 301 307 313 318 319 321 323 324 330 325 307 302 301
153 147 149 151 150 144 137 135 135 132 128 127 127 126 129 136 152 153 153 147 158 165 184 207 249 287 298 304 309 292 299 317 320 313 308 309 314 315 318 316 299 284 284
145 147 148 146 143 140 137 135 136 137 135 135 134 134 130 134 159 165 169 176 172 171 196 214 250 280 293 305 316 321 332 342 338 322 315 314 317 316 314 309 298 288 272
146 149 146 142 140 145 147 146 144 146 146 151 156 158 162 165 184 182 187 194 197 187 201 235 263 282 310 330 332 342 358 352 330 317 309 305 307 306 309 309 302 304 294
150 149 149 148 145 144 147 153 156 162 161 164 167 169 167 175 193 195 193 197 201 205 207 249 286 294 334 355 360 1 2 337 308 292 295 300 306 310 313 319 316 328 324
149 151 153 153 152 152 150 161 165 170 178 172 177 172 172 192 204 196 184 190 186 189 160 132 112 91 250 292 320 316 318 326 306 292 295 301 307 313 313 324 318 324 318
155 159 160 157 155 154 151 143 172 169 178 182 178 172 183 194 190 196 200 206 204 191 163 182 206 215 226 237 260 284 280 283 286 287 290 295 303 309 310 315 312 310 307
165 165 164 164 164 164 166 166 162 165 183 190 192 190 191 191 194 196 199 200 196 179 175 196 207 213 222 227 232 240 255 267 278 280 283 289 294 296 300 306 311 309 304
163 168 169 171 170 171 174 175 170 169 175 194 206 207 201 200 199 198 197 182 190 184 193 204 211 213 216 222 228 237 253 268 268 270 274 276 277 280 286 290 292 292 297
165 169 168 165 166 167 166 168 174 180 183 177 171 207 208 207 204 207 194 188 198 207 208 213 213 211 215 220 227 232 239 247 251 256 259 260 260 262 269 272 276 284 285
172 170 165 166 165 167 171 177 183 186 188 190 197 195 175 173 197 206 200 193 203 212 211 214 215 213 213 215 220 225 233 238 241 242 246 248 247 246 255 261 260 265 266
171 170 169 170 179 181 184 190 192 193 198 203 206 198 193 194 204 205 206 206 210 213 212 213 214 213 213 211 214 221 229 237 234 235 238 238 235 240 244 249 254 252 258
174 176 182 189 186 189 192 193 195 201 205 208 204 208 215 205 207 211 214 216 215 214 209 206 212 213 209 208 208 213 224 232 232 230 234 234 232 234 239 242 247 248 248
181 183 188 192 191 192 194 198 203 207 210 210 202 201 211 212 212 216 218 217 213 213 209 206 214 221 218 214 211 210 219 227 222 215 221 229 230 229 227 234 238 242 242
192 196 199 199 198 202 206 207 209 212 212 210 208 210 213 216 216 218 217 214 214 215 213 212 218 226 227 224 219 218 224 228 218 215 216 221 226 226 223 229 234 234 240
199 203 206 207 208 211 213 214 214 214 214 214 213 215 216 217 220 220 215 213 215 220 221 218 220 226 231 231 228 226 233 239 231 210 207 212 223 223 221 226 229 231 231
210 213 215 214 215 214 215 218 218 217 218 217 217 216 215 217 220 219 215 214 219 224 225 223 224 226 230 233 236 238 238 239 233 223 208 209 216 222 216 222 224 226 228